SCP
0 0 0 0 0 0 0 0 0 0 0 0 0 0 0 0 0 0 0 0 0 0 0 0 0 0 0 0 0 0 0 0 0 0 0 0 0 0 0 0 0 0 0 0 0
0 0 0 0 0 0 0 0 0 0 0 0 0 0 0 0 0 0 0 0 0 0 0 0 0 0 0 0 0 0 0 0 0 0 0 0 0 0 0 0 0 0 0 0 0
0 0 0 0 0 0 0 0 0 0 0 0 0 0 0 0 0 0 -0 0 0 0 0 0 0 0 0 0 0 0 0 0 0 0 0 0 0 0 0 0 0 0 0 0 0
0 0 0 0 0 0 0 0 0 0 0 0 0 0 0 0 0 0 0 0 0 0 0 0 0 0 0 0 0 0 0 0 0 0 0 0 0 0 0 0 0 0 0 0 0
0 0 0 0 0 0 0 0 0 0 0 0 0 0 0 0 0 0 0 0 0 0 0 0 0 0 0 0 0 0 0 0 0 0 0 0 0 0 0 0 0 0 0 0 0
0 0 0 0 0 0 0 0 0 0 0 0 0 0 0 0 0 0 0 0 0 0 0 0 0 0 0 0 0 0 0 0 0 0 0 0 0 0 0 0 0 0 0 0 0
0 0 0 0 0 0 0 0 0 0 0 0 0 0 0 0 0 0 0 0 0 0 0 0 0 0 0 0 0 0 0 0 0 0 0 0 0 0 0 0 0 0 0 0 0
0 0 0 0 0 0 0 0 0 0 0 0 0 0 0 0 0 0 0 0 0 0 0 0 0 0 0 0 0 0 0 0 0 0 0 0 0 0 0 0 0 0 0 0 0
0 0 0 0 0 0 0 0 0 0 0 0 0 0 0 0 0 0 0 0 0 0 0 0 0 0 0 0 0 0 0 0 0 0 0 0 0 0 0 0 0 0 0 0 0
0 0 0 0 0 0 0 0 0 0 0 0 0 0 0 0 0 0 0 0 0 0 0 0 0 0 0 0 0 0 0 0 0 0 0 0 0 0 0 0 0 0 0 0 0
0 0 0 0 0 0 0 0 0 0 0 0 0 0 0 0 0 0 0 0 0 0 0 0 0 0 0 0 0 0 0 0 0 0 0 0 0 0 0 0 0 0 0 0 0
0 0 0 0 0 0 0 0 0 0 0 0 0 0 0 0 0 0 0 0 0 0 0 0 0 0 0 0 0 0 0 0 0 0 0 0 0 0 0 0 0 0 0 0 0
0 0 0 0 0 0 0 0 0 0 0 0 0 0 0 0 0 0 0 0 0 0 0 0 0 0 0 0 0 0 0 0 0 0 0 0 0 0 0 0 0 0 0 0 0
0 0 0 0 0 0 0 0 0 0 0 0 0 0 0 0 0 0 0 0 0 0 0 0 0 0 0 0 0 0 0 0 0 0 0 0 0 0 0 0 0 0 0 0 0
0 0 -0 0 0 0 0 0 0 0 0 0 0 0 0 0 0 0 0 0 0 0 0 0 0 0 0 0 0 0 0 0 0 0 0 0 0 -0 0 0 0 0 0 0 0
0 0 0 0 0 0 0 0 0 0 0 0 0 0 0 0 0 0 0 0 0 0 0 0 0 0 0 0 0 0 0 0 0 0 0 0 0 0 0 0 -0 0 0 0 0
0 0 0 -0 0 0 0 0 0 0 0 0 0 0 0 0 0 0 0 0 0 0 0 0 0 0 0 0 0 0 0 0 0 0 0 0 0 0 0 0 0 -0 0 0 0
0 0 0 0 0 0 0 0 0 0 0 0 0 0 0 0 0 0 0 0 0 0 0 0 0 0 0 0 0 0 0 0 0 0 0 0 0 0 0 0 0 0 0 0 0
0 0 0 0 0 0 0 0 0 0 0 0 0 0 0 0 0 0 0 0 0 0 0 0 0 0 0 0 0 0 0 0 0 0 0 0 0 0 0 0 0 0 0 0 0
0 0 0 0 0 0 0 0 0 0 0 0 0 0 0 0 0 0 0 0 0 0 0 0 0 0 0 0 0 0 0 0 0 0 0 0 0 0 0 0 0 0 0 0 0
0 0 0 0 0 0 0 0 0 0 0 0 0 0 0 0 0 0 0 0 0 0 0 0 0 0 0 0 0 0 0 0 0 0 0 0 0 0 0 0 0 0 0 0 0
0 0 0 0 0 0 0 0 0 0 0 0 0 0 0 0 0 0 0 0 0 0 0 0 0 0 0 0 0 0 0 0 0 0 0 0 0 0 0 0 0 0 0 0 0
0 0 0 0 0 0 0 0 0 0 0 0 0 0 0 0 0 0 0 0 0 0 0 0 0 0 0 0 0 0 0 0 0 0 0 0 0 0 0 0 0 0 0 0 0
0 0 0 0 0 0 0 0 0 0 0 0 0 0 0 0 0 0 0 0 0 0 0 0 0 0 0 0 0 0 0 0 0 0 0 0 0 0 0 0 0 0 0 0 0
0 -0 0 0 0 0 0 0 0 0 0 0 0 0 0 0 0 0 0 0 0 0 0 0 0 0 0 0 0 0 0 0 0 0 0 0 0 0 0 0 0 0 0 0 0
0 0 0 0 0 0 0 0 0 0 0 0 0 0 0 0 0 0 0 0 0 0 0 0 0 0 0 0 0 0 0 0 0 0 0 0 0 0 0 0 0 0 0 0 0
0 0 0 0 0 0 0 0 0 0 0 0 0 0 0 0 0 0 0 0 0 0 0 0 0 0 0 0 0 0 0 0 0 0 0 0 0 0 0 0 0 0 0 0 0
Wind_Speed_500mb
44 52 45 40 34 33 32 31 35 43 49 47 42 39 36 33 36 34 35 30 23 21 14 12 12 12 15 8 8 5 8 3 7 9 5 9 7 5 3 3 1 2 4 4 7
54 45 48 49 39 37 32 30 27 30 37 47 46 40 35 32 33 37 44 33 26 18 14 12 10 10 7 10 7 8 6 13 4 6 3 5 10 6 2 8 2 1 6 7 3
60 55 50 41 41 44 37 33 28 25 26 33 42 41 35 29 26 44 47 40 34 28 20 15 9 4 2 4 5 4 9 6 4 1 4 4 9 4 2 4 3 1 7 12 12
62 60 56 53 47 38 44 38 31 26 24 23 29 37 33 28 14 8 13 30 40 33 29 20 9 8 4 4 3 2 9 7 1 3 6 8 6 8 10 12 9 7 12 19 19
56 59 62 57 57 51 41 43 38 31 26 22 23 30 34 30 33 6 8 15 39 42 33 24 18 13 10 6 3 2 2 4 8 11 12 12 15 17 20 24 27 25 24 16 25
60 59 59 59 57 55 52 42 43 35 27 23 22 32 40 24 25 38 5 7 24 44 32 28 15 17 8 6 8 4 5 11 3 5 10 9 13 11 5 15 20 21 26 31 35
60 61 55 57 61 56 54 45 48 39 30 25 26 37 40 45 9 47 39 7 19 39 35 33 20 19 11 3 7 5 10 12 4 4 6 8 12 18 36 24 22 25 32 37 33
54 60 61 56 50 56 50 53 45 42 35 29 28 32 19 36 41 22 36 18 20 24 29 30 29 19 10 12 7 5 8 5 5 4 11 14 21 13 27 15 16 21 30 44 51
59 59 61 61 51 49 55 52 40 42 35 33 31 24 13 22 41 30 36 37 21 21 19 26 33 15 20 9 2 8 5 10 14 3 5 11 4 7 10 32 46 49 49 51 59
71 65 63 60 53 45 47 46 40 39 39 34 26 17 25 27 33 46 32 39 29 24 21 22 20 9 9 11 15 11 8 3 9 9 5 16 22 26 56 45 41 50 59 65 65
62 70 60 65 58 49 40 48 29 24 62 18 26 12 2 33 28 58 43 40 36 29 10 12 10 24 25 15 11 7 9 10 5 12 5 17 33 18 50 41 44 55 67 74 67
70 75 65 70 63 57 54 68 52 20 19 42 21 48 7 35 19 35 53 36 28 17 15 7 29 14 13 10 10 13 20 15 9 10 10 17 33 24 24 33 48 54 68 60 59
66 65 79 58 62 58 72 77 66 31 11 30 27 49 22 41 15 47 55 34 10 23 28 24 7 34 19 9 12 10 14 9 13 6 9 11 39 29 21 15 36 36 45 53 56
59 69 76 49 63 69 80 73 63 39 7 13 24 30 29 25 9 41 60 36 10 26 15 21 12 15 10 22 19 22 11 10 8 6 16 8 16 12 6 18 10 38 44 53 35
57 64 70 71 42 86 81 72 54 54 20 28 25 26 41 36 31 29 63 48 14 11 15 11 17 19 12 14 11 8 13 17 11 9 8 5 11 9 10 5 15 35 32 20 28
59 62 65 82 47 84 64 70 68 18 27 20 27 24 27 36 15 28 39 38 14 11 3 10 6 14 17 11 22 15 10 9 4 3 18 16 12 18 10 12 7 16 8 20 18
73 70 68 77 42 70 74 70 24 27 13 16 18 34 48 22 18 17 29 31 22 18 26 9 11 4 9 12 6 14 14 1 4 9 12 10 14 35 6 22 22 16 22 6 28
68 64 70 76 74 64 83 26 34 44 23 8 21 36 43 29 28 17 33 33 38 5 12 24 10 23 15 16 13 20 18 9 12 9 8 7 15 14 11 11 2 6 8 14 25
66 68 64 79 81 84 63 35 28 18 16 30 33 35 25 26 19 26 33 41 35 32 16 15 13 5 8 10 26 11 24 17 4 5 3 9 15 27 21 22 18 28 16 20 22
63 60 70 81 75 66 31 37 16 11 10 24 22 23 29 35 29 37 32 32 20 34 3 11 3 6 14 10 8 13 16 5 7 9 14 9 11 22 9 12 15 12 17 16 18
58 32 76 76 67 46 27 19 12 25 14 18 13 14 17 23 24 33 29 10 43 42 34 10 6 1 11 16 25 13 19 8 10 9 10 4 12 15 21 15 16 11 12 13 16
52 11 64 73 24 14 29 11 21 21 20 3 10 10 24 29 27 30 31 36 54 44 40 17 7 9 16 3 9 23 17 21 10 9 6 4 18 8 9 21 22 17 22 15 14
22 47 29 80 23 29 12 11 10 12 14 8 7 6 8 25 20 19 22 23 40 34 30 22 10 5 10 6 3 13 24 27 27 5 21 14 15 9 21 18 19 30 20 13 11
27 10 18 65 41 9 29 19 12 11 9 8 7 5 10 9 4 28 16 12 47 46 40 49 9 24 32 11 12 12 16 29 27 15 36 27 45 17 14 13 22 19 14 10 11
14 2 6 11 8 15 3 28 35 11 8 12 5 8 17 13 23 11 22 9 12 35 36 22 17 25 28 11 10 15 28 34 34 51 28 49 35 46 23 17 23 22 14 8 9
0 5 21 14 16 24 7 11 31 9 16 10 11 17 12 15 21 26 23 14 16 14 25 10 11 16 26 20 15 10 16 28 46 50 36 37 26 11 12 27 24 22 19 10 8
5 22 14 8 7 7 5 11 13 15 9 13 20 16 14 22 33 13 43 24 17 25 31 17 13 10 12 12 9 11 50 22 19 31 34 36 56 15 9 19 33 28 18 8 5
Wind_Direction_500mb
241 236 232 229 229 231 235 236 230 229 229 229 230 232 235 239 245 245 243 244 241 248 259 278 299 325 355 22 25 38 65 144 190 160 190 22 71 34 29 62 122 359 7 337 324
239 236 233 232 227 229 230 236 233 231 227 226 227 230 233 238 250 250 245 234 230 232 235 257 296 325 3 356 5 79 102 213 211 163 123 29 30 25 27 7 16 332 1 0 332
240 234 232 231 230 229 228 231 231 230 230 224 223 225 229 236 260 263 260 248 232 234 234 242 257 331 43 353 344 108 167 206 250 85 61 9 349 358 68 327 237 141 17 358 339
240 237 234 233 235 232 228 226 229 226 225 222 220 218 217 219 218 204 246 238 216 218 223 225 196 150 128 225 222 266 213 196 307 208 335 329 303 291 235 259 310 246 308 318 315
236 239 235 233 235 234 231 225 225 224 221 216 212 206 202 207 221 232 275 240 206 201 209 206 188 159 169 196 223 229 249 185 213 276 292 289 265 267 263 272 281 280 295 304 308
229 232 233 232 233 234 230 229 223 220 219 212 200 194 204 214 225 224 269 222 212 198 195 195 197 195 172 186 170 277 271 280 136 227 269 249 272 277 98 296 283 282 277 293 298
232 227 227 227 233 230 227 228 220 215 214 208 202 198 210 223 215 214 233 249 183 203 191 196 192 176 186 128 196 272 316 334 228 202 259 263 289 239 275 281 284 289 297 302 308
237 228 221 222 222 223 226 221 219 209 209 204 206 204 220 236 220 209 219 196 160 180 207 216 206 194 169 140 90 109 45 347 288 204 231 172 258 263 292 300 297 296 305 306 303
239 229 221 218 216 216 220 216 217 205 201 201 202 199 226 230 217 201 205 202 173 179 189 198 196 194 180 158 213 191 197 212 304 257 229 191 298 283 283 308 305 306 308 310 309
239 233 216 211 207 202 210 209 209 202 191 191 200 190 232 217 215 191 185 200 204 179 169 173 188 187 180 175 207 205 209 149 215 309 337 291 269 272 285 288 292 298 306 308 304
235 237 218 209 206 204 195 192 186 193 186 183 184 196 206 206 205 193 184 185 191 191 162 182 203 208 202 207 190 140 165 185 239 262 279 259 272 260 279 287 287 299 304 304 299
237 232 233 204 206 205 199 198 195 204 170 196 202 198 184 172 167 199 194 183 187 192 141 180 229 197 193 209 208 206 232 231 236 243 201 283 277 279 270 270 284 295 295 294 307
229 226 223 212 207 205 206 208 204 164 165 194 193 194 180 180 185 187 192 191 182 188 193 203 223 186 182 164 179 196 221 211 232 314 271 295 287 270 254 256 283 282 282 295 305
222 226 232 223 209 200 208 205 210 187 235 176 187 195 178 173 228 192 196 180 187 203 165 230 225 170 169 205 183 228 182 163 208 233 262 127 287 310 274 277 244 275 292 300 327
218 227 223 215 202 195 203 202 197 197 228 171 169 182 182 177 147 191 196 198 169 178 164 212 180 176 195 210 158 228 167 181 179 215 299 219 284 285 113 197 265 276 286 324 341
226 221 218 228 232 205 196 192 193 206 214 170 150 158 155 196 190 144 174 196 169 146 33 211 186 175 197 162 183 154 91 58 64 124 245 177 182 271 183 186 218 265 326 345 34
224 222 217 225 225 201 194 182 203 213 145 170 168 170 179 171 166 160 174 183 184 184 205 149 204 171 142 112 115 178 135 195 212 205 246 202 175 246 305 284 239 268 302 88 25
223 224 218 222 207 184 188 197 221 208 177 158 157 176 187 162 191 165 168 194 209 157 177 207 209 188 186 188 169 195 188 186 195 194 236 133 231 246 199 278 212 143 145 72 35
220 219 225 220 215 216 182 204 210 206 163 158 147 175 184 182 181 174 188 199 196 192 176 183 236 119 205 163 160 176 209 213 349 80 56 230 280 285 275 271 150 151 104 65 44
209 220 217 213 215 214 231 196 166 148 133 149 158 187 175 177 174 189 183 198 199 192 155 203 156 199 185 134 223 168 153 151 194 202 234 243 252 238 263 94 133 137 82 74 44
202 207 229 216 206 218 226 188 130 173 213 161 149 145 176 176 186 190 185 205 192 190 182 151 154 9 134 200 175 177 209 206 141 165 179 219 250 211 237 216 164 158 116 100 58
188 210 222 203 201 215 213 169 148 145 179 340 109 106 169 169 182 191 202 206 199 173 195 182 167 176 201 230 232 208 211 193 180 209 229 250 257 166 150 145 146 147 134 105 73
190 204 220 184 200 225 204 153 137 135 161 171 114 134 170 173 182 182 211 208 180 179 174 172 204 107 321 5 34 196 216 201 218 80 215 209 258 14 144 137 141 143 135 106 76
204 162 185 187 199 206 170 161 122 149 106 108 122 95 115 133 159 192 204 203 186 187 185 173 190 216 224 215 146 201 197 206 199 216 239 224 247 216 190 173 155 135 126 108 61
218 140 116 128 173 137 50 162 177 130 119 162 102 199 146 162 188 189 192 138 186 186 185 176 219 216 237 205 190 205 210 202 205 221 214 242 231 254 225 186 167 153 148 125 51
241 129 92 103 130 118 72 133 162 146 157 173 160 180 161 157 193 195 172 176 187 197 192 196 233 174 246 231 214 231 223 204 211 225 228 250 247 159 142 140 149 160 156 125 45
82 129 94 44 66 85 115 139 169 169 217 180 193 150 171 203 189 184 193 191 185 176 189 189 198 155 246 175 165 237 230 202 213 220 210 223 240 148 170 172 170 167 166 153 356
Wind_Speed_850mb
44 52 45 40 34 33 32 31 35 43 49 47 42 39 36 33 36 34 35 30 23 21 14 12 12 12 15 8 8 5 8 3 7 9 5 9 7 5 3 3 1 2 4 4 7
54 45 48 49 39 37 32 30 27 30 37 47 46 40 35 32 33 37 44 33 26 18 14 12 10 10 7 10 7 8 6 13 4 6 3 5 10 6 2 8 2 1 6 7 3
60 55 50 41 41 44 37 33 28 25 26 33 42 41 35 29 26 44 47 40 34 28 20 15 9 4 2 4 5 4 9 6 4 1 4 4 9 4 2 4 3 1 7 12 12
62 60 56 53 47 38 44 38 31 26 24 23 29 37 33 28 14 8 13 30 40 33 29 20 9 8 4 4 3 2 9 7 1 3 6 8 6 8 10 12 9 7 12 19 19
56 59 62 57 57 51 41 43 38 31 26 22 23 30 34 30 33 6 8 15 39 42 33 24 18 13 10 6 3 2 2 4 8 11 12 12 15 17 20 24 27 25 24 16 25
60 59 59 59 57 55 52 42 43 35 27 23 22 32 40 24 25 38 5 7 24 44 32 28 15 17 8 6 8 4 5 11 3 5 10 9 13 11 5 15 20 21 26 31 35
60 61 55 57 61 56 54 45 48 39 30 25 26 37 40 45 9 47 39 7 19 39 35 33 20 19 11 3 7 5 10 12 4 4 6 8 12 18 36 24 22 25 32 37 33
54 60 61 56 50 56 50 53 45 42 35 29 28 32 19 36 41 22 36 18 20 24 29 30 29 19 10 12 7 5 8 5 5 4 11 14 21 13 27 15 16 21 30 44 51
59 59 61 61 51 49 55 52 40 42 35 33 31 24 13 22 41 30 36 37 21 21 19 26 33 15 20 9 2 8 5 10 14 3 5 11 4 7 10 32 46 49 49 51 59
71 65 63 60 53 45 47 46 40 39 39 34 26 17 25 27 33 46 32 39 29 24 21 22 20 9 9 11 15 11 8 3 9 9 5 16 22 26 56 45 41 50 59 65 65
62 70 60 65 58 49 40 48 29 24 62 18 26 12 2 33 28 58 43 40 36 29 10 12 10 24 25 15 11 7 9 10 5 12 5 17 33 18 50 41 44 55 67 74 67
70 75 65 70 63 57 54 68 52 20 19 42 21 48 7 35 19 35 53 36 28 17 15 7 29 14 13 10 10 13 20 15 9 10 10 17 33 24 24 33 48 54 68 60 59
66 65 79 58 62 58 72 77 66 31 11 30 27 49 22 41 15 47 55 34 10 23 28 24 7 34 19 9 12 10 14 9 13 6 9 11 39 29 21 15 36 36 45 53 56
59 69 76 49 63 69 80 73 63 39 7 13 24 30 29 25 9 41 60 36 10 26 15 21 12 15 10 22 19 22 11 10 8 6 16 8 16 12 6 18 10 38 44 53 35
57 64 70 71 42 86 81 72 54 54 20 28 25 26 41 36 31 29 63 48 14 11 15 11 17 19 12 14 11 8 13 17 11 9 8 5 11 9 10 5 15 35 32 20 28
59 62 65 82 47 84 64 70 68 18 27 20 27 24 27 36 15 28 39 38 14 11 3 10 6 14 17 11 22 15 10 9 4 3 18 16 12 18 10 12 7 16 8 20 18
73 70 68 77 42 70 74 70 24 27 13 16 18 34 48 22 18 17 29 31 22 18 26 9 11 4 9 12 6 14 14 1 4 9 12 10 14 35 6 22 22 16 22 6 28
68 64 70 76 74 64 83 26 34 44 23 8 21 36 43 29 28 17 33 33 38 5 12 24 10 23 15 16 13 20 18 9 12 9 8 7 15 14 11 11 2 6 8 14 25
66 68 64 79 81 84 63 35 28 18 16 30 33 35 25 26 19 26 33 41 35 32 16 15 13 5 8 10 26 11 24 17 4 5 3 9 15 27 21 22 18 28 16 20 22
63 60 70 81 75 66 31 37 16 11 10 24 22 23 29 35 29 37 32 32 20 34 3 11 3 6 14 10 8 13 16 5 7 9 14 9 11 22 9 12 15 12 17 16 18
58 32 76 76 67 46 27 19 12 25 14 18 13 14 17 23 24 33 29 10 43 42 34 10 6 1 11 16 25 13 19 8 10 9 10 4 12 15 21 15 16 11 12 13 16
52 11 64 73 24 14 29 11 21 21 20 3 10 10 24 29 27 30 31 36 54 44 40 17 7 9 16 3 9 23 17 21 10 9 6 4 18 8 9 21 22 17 22 15 14
22 47 29 80 23 29 12 11 10 12 14 8 7 6 8 25 20 19 22 23 40 34 30 22 10 5 10 6 3 13 24 27 27 5 21 14 15 9 21 18 19 30 20 13 11
27 10 18 65 41 9 29 19 12 11 9 8 7 5 10 9 4 28 16 12 47 46 40 49 9 24 32 11 12 12 16 29 27 15 36 27 45 17 14 13 22 19 14 10 11
14 2 6 11 8 15 3 28 35 11 8 12 5 8 17 13 23 11 22 9 12 35 36 22 17 25 28 11 10 15 28 34 34 51 28 49 35 46 23 17 23 22 14 8 9
0 5 21 14 16 24 7 11 31 9 16 10 11 17 12 15 21 26 23 14 16 14 25 10 11 16 26 20 15 10 16 28 46 50 36 37 26 11 12 27 24 22 19 10 8
5 22 14 8 7 7 5 11 13 15 9 13 20 16 14 22 33 13 43 24 17 25 31 17 13 10 12 12 9 11 50 22 19 31 34 36 56 15 9 19 33 28 18 8 5
Wind_Direction_850mb
241 236 232 229 229 231 235 236 230 229 229 229 230 232 235 239 245 245 243 244 241 248 259 278 299 325 355 22 25 38 65 144 190 160 190 22 71 34 29 62 122 359 7 337 324
239 236 233 232 227 229 230 236 233 231 227 226 227 230 233 238 250 250 245 234 230 232 235 257 296 325 3 356 5 79 102 213 211 163 123 29 30 25 27 7 16 332 1 0 332
240 234 232 231 230 229 228 231 231 230 230 224 223 225 229 236 260 263 260 248 232 234 234 242 257 331 43 353 344 108 167 206 250 85 61 9 349 358 68 327 237 141 17 358 339
240 237 234 233 235 232 228 226 229 226 225 222 220 218 217 219 218 204 246 238 216 218 223 225 196 150 128 225 222 266 213 196 307 208 335 329 303 291 235 259 310 246 308 318 315
236 239 235 233 235 234 231 225 225 224 221 216 212 206 202 207 221 232 275 240 206 201 209 206 188 159 169 196 223 229 249 185 213 276 292 289 265 267 263 272 281 280 295 304 308
229 232 233 232 233 234 230 229 223 220 219 212 200 194 204 214 225 224 269 222 212 198 195 195 197 195 172 186 170 277 271 280 136 227 269 249 272 277 98 296 283 282 277 293 298
232 227 227 227 233 230 227 228 220 215 214 208 202 198 210 223 215 214 233 249 183 203 191 196 192 176 186 128 196 272 316 334 228 202 259 263 289 239 275 281 284 289 297 302 308
237 228 221 222 222 223 226 221 219 209 209 204 206 204 220 236 220 209 219 196 160 180 207 216 206 194 169 140 90 109 45 347 288 204 231 172 258 263 292 300 297 296 305 306 303
239 229 221 218 216 216 220 216 217 205 201 201 202 199 226 230 217 201 205 202 173 179 189 198 196 194 180 158 213 191 197 212 304 257 229 191 298 283 283 308 305 306 308 310 309
239 233 216 211 207 202 210 209 209 202 191 191 200 190 232 217 215 191 185 200 204 179 169 173 188 187 180 175 207 205 209 149 215 309 337 291 269 272 285 288 292 298 306 308 304
235 237 218 209 206 204 195 192 186 193 186 183 184 196 206 206 205 193 184 185 191 191 162 182 203 208 202 207 190 140 165 185 239 262 279 259 272 260 279 287 287 299 304 304 299
237 232 233 204 206 205 199 198 195 204 170 196 202 198 184 172 167 199 194 183 187 192 141 180 229 197 193 209 208 206 232 231 236 243 201 283 277 279 270 270 284 295 295 294 307
229 226 223 212 207 205 206 208 204 164 165 194 193 194 180 180 185 187 192 191 182 188 193 203 223 186 182 164 179 196 221 211 232 314 271 295 287 270 254 256 283 282 282 295 305
222 226 232 223 209 200 208 205 210 187 235 176 187 195 178 173 228 192 196 180 187 203 165 230 225 170 169 205 183 228 182 163 208 233 262 127 287 310 274 277 244 275 292 300 327
218 227 223 215 202 195 203 202 197 197 228 171 169 182 182 177 147 191 196 198 169 178 164 212 180 176 195 210 158 228 167 181 179 215 299 219 284 285 113 197 265 276 286 324 341
226 221 218 228 232 205 196 192 193 206 214 170 150 158 155 196 190 144 174 196 169 146 33 211 186 175 197 162 183 154 91 58 64 124 245 177 182 271 183 186 218 265 326 345 34
224 222 217 225 225 201 194 182 203 213 145 170 168 170 179 171 166 160 174 183 184 184 205 149 204 171 142 112 115 178 135 195 212 205 246 202 175 246 305 284 239 268 302 88 25
223 224 218 222 207 184 188 197 221 208 177 158 157 176 187 162 191 165 168 194 209 157 177 207 209 188 186 188 169 195 188 186 195 194 236 133 231 246 199 278 212 143 145 72 35
220 219 225 220 215 216 182 204 210 206 163 158 147 175 184 182 181 174 188 199 196 192 176 183 236 119 205 163 160 176 209 213 349 80 56 230 280 285 275 271 150 151 104 65 44
209 220 217 213 215 214 231 196 166 148 133 149 158 187 175 177 174 189 183 198 199 192 155 203 156 199 185 134 223 168 153 151 194 202 234 243 252 238 263 94 133 137 82 74 44
202 207 229 216 206 218 226 188 130 173 213 161 149 145 176 176 186 190 185 205 192 190 182 151 154 9 134 200 175 177 209 206 141 165 179 219 250 211 237 216 164 158 116 100 58
188 210 222 203 201 215 213 169 148 145 179 340 109 106 169 169 182 191 202 206 199 173 195 182 167 176 201 230 232 208 211 193 180 209 229 250 257 166 150 145 146 147 134 105 73
190 204 220 184 200 225 204 153 137 135 161 171 114 134 170 173 182 182 211 208 180 179 174 172 204 107 321 5 34 196 216 201 218 80 215 209 258 14 144 137 141 143 135 106 76
204 162 185 187 199 206 170 161 122 149 106 108 122 95 115 133 159 192 204 203 186 187 185 173 190 216 224 215 146 201 197 206 199 216 239 224 247 216 190 173 155 135 126 108 61
218 140 116 128 173 137 50 162 177 130 119 162 102 199 146 162 188 189 192 138 186 186 185 176 219 216 237 205 190 205 210 202 205 221 214 242 231 254 225 186 167 153 148 125 51
241 129 92 103 130 118 72 133 162 146 157 173 160 180 161 157 193 195 172 176 187 197 192 196 233 174 246 231 214 231 223 204 211 225 228 250 247 159 142 140 149 160 156 125 45
82 129 94 44 66 85 115 139 169 169 217 180 193 150 171 203 189 184 193 191 185 176 189 189 198 155 246 175 165 237 230 202 213 220 210 223 240 148 170 172 170 167 166 153 356